Flag for Norway Weather past 2 weeks in Tromsø, Norway

Now
55 °F

Overcast.


Feels Like: 55 °F
Forecast: 47 / 55 °F
Wind: 5 mph from North

Location: Tromso / Langnes

Current Time: Jul 2, 2015 at 3:34:07 PM

Latest Report: Jul 2, 2015 at 2:00 PM


Visibility: 25 mi

Pressure: 30.13 "Hg

Humidity: 57%

Dew point: 40 °F

Location of TromsøLocation

Historic Weather in Tromsø — Graph

°F

Tromsø temperature yesterday

Maximum temperature yesterday: 54 °F (at 4:00 PM)
Minimum temperature yesterday: 43 °F (at 12:00 AM)
Average temperature yesterday: 49 °F

Past Weeks' High & Low Weather Summary

 TemperatureHumidityPressure
High58 °F (Jun 24, 1:00 PM)97% (Jun 25, 3:00 AM)30.25 "Hg (Jun 25, 3:00 AM)
Low40 °F (Jun 20, 4:00 AM)43% (Jul 1, 11:00 AM)29.69 "Hg (Jun 25, 8:00 AM)
Average48 °F74%29.93 "Hg
* Reported Jun 17 2:00 PM — Jul 2 2:00 PM, Tromsø, Weather by CustomWeather, © 2015

Note: Actual official high and low records may vary slightly from our data, if they occured in-between our weather recording intervals... More about our weather records

Advertising

Tromsø weather history for previous 24 hours

 ConditionsComfort  
Time TempWeatherWind HumidityBarometerVisibility
2:00 PM
Thu, Jul 2
55 °FOvercast.5 mph57%30.13 "Hg25 mi
1:00 PM56 °FOvercast.5 mph60%30.14 "Hg28 mi
12:00 PM54 °FOvercast.3 mph61%30.16 "Hg28 mi
11:00 AM53 °FOvercast.1 mph58%30.16 "Hg25 mi
10:00 AM51 °FOvercast.1 mph65%30.16 "Hg25 mi
9:00 AM51 °FOvercast.2 mph66%30.17 "Hg25 mi
8:00 AM49 °FOvercast.1 mph67%30.18 "Hg28 mi
7:00 AM48 °FOvercast.1 mph72%30.18 "Hg28 mi
6:00 AM47 °FOvercast.1 mph72%30.18 "Hg28 mi
5:00 AM46 °FOvercast.2 mph76%30.19 "Hg31 mi
4:00 AM46 °FOvercast.1 mph75%30.19 "Hg31 mi
3:00 AM46 °FOvercast.2 mph73%30.19 "Hg31 mi
2:00 AM46 °FOvercast.3 mph70%30.19 "Hg31 mi
1:00 AM46 °FOvercast.5 mph69%30.21 "Hg31 mi
12:00 AM46 °FOvercast.7 mph70%30.21 "Hg31 mi
11:00 PM
Wed, Jul 1
47 °FOvercast.7 mph69%30.21 "Hg31 mi
10:00 PM47 °FPartly sunny.8 mph71%30.21 "Hg31 mi
9:00 PM48 °FPassing clouds.8 mph69%30.21 "Hg28 mi
8:00 PM51 °FPassing clouds.7 mph56%30.21 "Hg25 mi
7:00 PM52 °FSunny.6 mph52%30.22 "Hg25 mi
6:00 PM53 °FSunny.6 mph51%30.23 "Hg25 mi
5:00 PM53 °FSunny.6 mph51%30.24 "Hg19 mi
4:00 PM54 °FSunny.6 mph53%30.24 "Hg31 mi
3:00 PM53 °FSunny.6 mph54%30.25 "Hg22 mi
Weather by CustomWeather, © 2015

See weather overviewHow to use our weather pages